Wichita Jabara, KS

7:44 AM CDT on March 30, 2017 (GMT -0500)
Col Jabara

Weather History for KAAO - November, 2013

Change the Weather History Date:

Sunday, November 24, 2013

  Actual Average (KIAB) Record (KIAB)
Temperature  
Mean Temperature 22 °F -  
Max Temperature 28 °F 49 °F 65 °F (2011)
Min Temperature 17 °F 32 °F 15 °F (2003)
Degree Days  
Heating Degree Days 43    
Moisture  
Dew Point 10 °F    
Average Humidity 60    
Maximum Humidity 77    
Minimum Humidity 47    
Precipitation  
Precipitation 0.00 in - - ()
Sea Level Pressure  
Sea Level Pressure 30.56 in    
Wind  
Wind Speed 6 mph (SSE)    
Max Wind Speed 13 mph    
Max Gust Speed 25 mph    
Visibility 10 miles    
Events      
Averages and records for this station are not official NWS values.
T = Trace of Precipitation, MM = Missing Value Source: NWS Daily Summary

Daily Weather History Graph

Daily Weather History Graph

Search for Another Location

Airport or City:

Trip Planner

Search our weather history database for the weather conditions in past years. The results will help you decide how hot, cold, wet, or windy it might be!

Date:

Astronomy

Nov. 24, 2013 Rise Set
Actual Time 7:18 AM CST 5:12 PM CST
Civil Twilight 6:50 AM CST 5:40 PM CST
Nautical Twilight 6:18 AM CST 6:13 PM CST
Astronomical Twilight 5:46 AM CST 6:44 PM CST
Moon 11:35 PM CST (11/24) 12:10 PM CST (11/24)
Length of Visible Light 10h 50m
Length of Day
9h 53m
Waning Gibbous, 60% of the Moon is Illuminated
Nov 24
Waning Gibbous
Nov 25
Last Quarter
Dec 2
New
Dec 9
First Quarter
Dec 17
Full

Hourly Weather History & Observations

Time (CST) Temp. Windchill Dew Point Humidity Pressure Visibility Wind Dir Wind Speed Gust Speed Precip Events Conditions
12:54 AM 18.0 °F 9.8 °F 10.0 °F 71% 30.74 in 10.0 mi NE 5.8 mph - N/A   Clear
1:54 AM 17.1 °F 8.7 °F 10.0 °F 74% 30.75 in 10.0 mi NE 5.8 mph 25.3 mph N/A   Clear
2:54 AM 18.0 °F 11.1 °F 10.0 °F 71% 30.75 in 10.0 mi ENE 4.6 mph - N/A   Clear
3:54 AM 17.1 °F - 10.9 °F 77% 30.76 in 10.0 mi Calm Calm - N/A   Clear
4:54 AM 17.1 °F 10.0 °F 10.9 °F 77% 30.74 in 10.0 mi ENE 4.6 mph - N/A   Clear
5:54 AM 17.1 °F 10.0 °F 10.9 °F 77% 30.73 in 10.0 mi East 4.6 mph - N/A   Clear
6:54 AM 18.0 °F 9.8 °F 10.9 °F 74% 30.73 in 10.0 mi ESE 5.8 mph - N/A   Clear
7:54 AM 18.0 °F 9.8 °F 10.9 °F 74% 30.71 in 10.0 mi ESE 5.8 mph - N/A   Clear
8:54 AM 19.0 °F 11.1 °F 10.9 °F 71% 30.71 in 10.0 mi SE 5.8 mph - N/A   Clear
9:54 AM 19.9 °F 11.1 °F 9.0 °F 62% 30.69 in 10.0 mi SE 6.9 mph - N/A   Clear
10:54 AM 21.9 °F 14.5 °F 9.0 °F 58% 30.66 in 10.0 mi SE 5.8 mph - N/A   Clear
11:54 AM 23.0 °F 17.0 °F 10.0 °F 58% 30.63 in 10.0 mi SSE 4.6 mph - N/A   Clear
12:54 PM 24.1 °F 15.2 °F 9.0 °F 53% 30.59 in 10.0 mi SSE 8.1 mph - N/A   Overcast
1:54 PM 25.0 °F 18.1 °F 9.0 °F 51% 30.55 in 10.0 mi South 5.8 mph - N/A   Overcast
2:54 PM 27.0 °F 18.7 °F 9.0 °F 47% 30.53 in 10.0 mi SSW 8.1 mph - N/A   Overcast
3:54 PM 27.0 °F 18.7 °F 9.0 °F 47% 30.51 in 10.0 mi SSE 8.1 mph - N/A   Overcast
4:54 PM 27.0 °F 17.3 °F 10.0 °F 49% 30.48 in 10.0 mi SSE 10.4 mph - N/A   Overcast
5:54 PM 26.1 °F 16.8 °F 12.0 °F 55% 30.45 in 10.0 mi SSE 9.2 mph - N/A   Overcast
6:54 PM 26.1 °F 18.4 °F 12.0 °F 55% 30.43 in 10.0 mi South 6.9 mph - N/A   Overcast
7:54 PM 27.0 °F 17.3 °F 12.9 °F 56% 30.40 in 10.0 mi South 10.4 mph - N/A   Overcast
8:54 PM 27.0 °F 18.0 °F 10.9 °F 51% 30.38 in 10.0 mi South 9.2 mph - N/A   Overcast
9:11 PM 26.6 °F 16.2 °F 10.4 °F 51% 30.31 in 10.0 mi South 11.5 mph - N/A   Overcast
9:51 PM 26.6 °F 15.7 °F 10.4 °F 51% 30.30 in 10.0 mi South 12.7 mph - N/A   Overcast
9:54 PM 27.0 °F 17.3 °F 10.9 °F 51% 30.36 in 10.0 mi South 10.4 mph - N/A   Overcast
10:54 PM 27.0 °F 18.0 °F 10.9 °F 51% 30.34 in 10.0 mi South 9.2 mph - N/A   Overcast
11:54 PM 28.0 °F 20.0 °F 12.0 °F 51% 30.34 in 10.0 mi South 8.1 mph - N/A   Overcast